Weather reports worldwide

Advertisment
Wilkes-Barre/Scrant PA, United States of America (72513): temperature & dewpoint: 22.05.2017 14:00:00 - 28.05.2017 14:00:00 (EDT)Wilkes-Barre/Scrant PA, United States of America (72513): wind speed & gusts: 22.05.2017 14:00:00 - 28.05.2017 14:00:00 (EDT)Wilkes-Barre/Scrant PA, United States of America (72513): wind direction: 22.05.2017 14:00:00 - 28.05.2017 14:00:00 (EDT)Wilkes-Barre/Scrant PA, United States of America (72513): reduced air pressure: 22.05.2017 14:00:00 - 28.05.2017 14:00:00 (EDT)Wilkes-Barre/Scrant PA, United States of America (72513): visibility: 22.05.2017 14:00:00 - 28.05.2017 14:00:00 (EDT)Wilkes-Barre/Scrant PA, United States of America (72513): precipitation: 22.05.2017 14:00:00 - 28.05.2017 14:00:00 (EDT)
Date & Time tt [°C] td [°C] ff [km/h] ff [kn] fx [km/h] fx [kn] dd ppp [hPa] vv [km] rr [mm]
28.05.2017 14:00:00 23,9 11,7 11 6 - - - 1010,9 16 -
28.05.2017 13:00:00 23,9 12,2 9 5 - - - 1011,5 16 -
28.05.2017 12:00:00 23,3 11,7 13 7 - - SSW 1011,6 16 -
28.05.2017 11:00:00 23,3 11,1 11 6 - - - 1011,3 16 0,0
28.05.2017 10:00:00 21,1 13,9 0 0 - - N 1011,4 16 -
28.05.2017 09:00:00 20,6 14,4 0 0 - - N 1012,2 16 -
28.05.2017 08:00:00 17,8 12,8 5 3 - - E 1012,1 16 0,0
28.05.2017 07:00:00 15,6 12,8 8 4 - - E 1012,5 16 -
28.05.2017 06:00:00 15,6 13,3 5 3 - - ESE 1012,3 16 -
28.05.2017 05:00:00 16,1 13,3 9 5 - - E 1011,8 16 0,0
28.05.2017 04:00:00 15,6 13,3 8 4 - - E 1011,5 16 -
28.05.2017 03:00:00 16,1 13,3 11 6 - - NE 1011,7 16 -
28.05.2017 02:00:00 16,1 13,3 8 4 - - E 1012,5 16 0,0
28.05.2017 01:00:00 16,7 13,3 8 4 - - E 1012,6 16 -
28.05.2017 00:00:00 16,7 13,3 5 3 - - - 1012,6 16 -
27.05.2017 23:00:00 16,7 13,3 8 4 - - E 1012,6 16 0,0
27.05.2017 22:00:00 17,8 13,3 8 4 - - E 1012,7 16 -
27.05.2017 21:00:00 17,8 13,9 5 3 - - E 1012,1 16 -
27.05.2017 20:00:00 20,0 12,8 5 3 - - N 1011,9 16 0,0
27.05.2017 19:00:00 20,6 12,2 5 3 - - WNW 1011,4 16 -
27.05.2017 18:00:00 21,1 12,2 5 3 - - WNW 1011,1 16 -
27.05.2017 17:00:00 20,6 12,2 0 0 - - N 1011,4 16 0,0
27.05.2017 16:00:00 20,6 12,8 0 0 - - N 1011,6 16 -
27.05.2017 15:00:00 19,4 12,2 0 0 - - N 1011,7 16 -
27.05.2017 14:00:00 18,3 12,8 9 5 - - - 1012,1 16 0,0
27.05.2017 13:00:00 18,9 12,8 11 6 - - WSW 1012,1 16 -
27.05.2017 12:00:00 18,3 12,8 13 7 - - WNW 1012,2 16 -
27.05.2017 11:00:00 17,2 12,8 11 6 - - W 1012,3 10 0,0
27.05.2017 10:00:00 16,7 12,2 11 6 - - WSW 1012,4 16 -
27.05.2017 09:00:00 15,0 12,2 9 5 - - SW 1012,3 16 -
27.05.2017 08:00:00 14,4 11,7 11 6 - - SW 1012,0 16 0,0
27.05.2017 07:00:00 13,9 11,7 5 3 - - SW 1011,8 16 -
27.05.2017 06:00:00 13,9 11,7 5 3 - - SSW 1011,6 16 -
27.05.2017 05:00:00 13,9 11,7 9 5 - - SSW 1011,3 16 0,0
27.05.2017 04:00:00 14,4 12,8 13 7 - - SW 1011,1 16 -
27.05.2017 03:00:00 15,0 13,3 0 0 - - N 1010,4 16 -
27.05.2017 02:00:00 15,6 12,8 5 3 - - WSW 1010,6 16 -
27.05.2017 01:00:00 15,6 13,3 5 3 - - NW 1010,8 16 -
27.05.2017 00:00:00 16,1 13,3 5 3 - - W 1010,6 16 -
26.05.2017 23:00:00 16,1 12,8 9 5 - - WNW 1010,6 16 -
26.05.2017 22:00:00 16,1 12,8 8 4 - - NW 1010,1 16 0,0
26.05.2017 21:00:00 16,7 12,8 22 12 - - NNW 1009,0 13 0,0
26.05.2017 20:00:00 18,3 12,8 16 9 - - NW 1008,2 16 -
26.05.2017 19:00:00 19,4 12,8 15 8 - - NW 1006,8 16 -
26.05.2017 18:00:00 19,4 11,7 28 15 - - NW 1006,0 16 -
26.05.2017 17:00:00 20,6 11,7 22 12 - - NW 1005,3 16 -
26.05.2017 16:00:00 20,0 11,7 15 8 - - WNW 1004,7 16 0,0
26.05.2017 15:00:00 19,4 12,8 13 7 - - W 1004,3 15 0,0
26.05.2017 14:00:00 20,0 12,2 22 12 - - NNW 1003,6 16 0,0
26.05.2017 13:00:00 17,2 12,2 21 11 - - NNW 1003,8 16 -
26.05.2017 12:00:00 18,3 13,3 13 7 - - WNW 1003,4 16 -
26.05.2017 11:00:00 17,8 13,3 15 8 - - WNW 1003,4 16 0,0
26.05.2017 10:00:00 17,2 13,9 11 6 - - WNW 1003,1 16 -
26.05.2017 09:00:00 16,1 14,4 8 4 - - WNW 1002,8 15 -
26.05.2017 08:00:00 15,0 14,4 5 3 - - WNW 1002,0 13 -
26.05.2017 07:00:00 14,4 14,4 0 0 - - N 1001,3 16 -
26.05.2017 06:00:00 14,4 13,9 8 4 - - WSW 1000,3 16 -
26.05.2017 05:00:00 13,9 13,9 9 5 - - W 999,6 16 1,3
26.05.2017 04:00:00 14,4 13,9 5 3 - - NNW 999,2 6 0,3
26.05.2017 03:00:00 14,4 13,3 0 0 - - N 998,9 16 0,5
26.05.2017 02:00:00 15,0 13,3 0 0 - - N 998,7 16 -
26.05.2017 01:00:00 15,0 13,9 0 0 - - N 998,8 16 -
26.05.2017 00:00:00 15,0 13,3 0 0 - - N 998,6 16 -
25.05.2017 23:00:00 15,6 13,9 9 5 - - NNE 998,7 16 0,0
25.05.2017 22:00:00 15,6 14,4 13 7 - - NE 998,5 16 0,0
25.05.2017 21:00:00 16,1 13,9 5 3 - - - 999,2 16 -
25.05.2017 20:00:00 16,7 13,9 5 3 - - - 998,3 16 0,0
25.05.2017 19:00:00 17,2 13,9 11 6 - - E 998,7 16 -
25.05.2017 18:00:00 17,2 13,9 8 4 - - - 999,0 16 -
25.05.2017 17:00:00 17,8 13,3 13 7 - - SSE 998,2 16 0,0
25.05.2017 16:00:00 17,8 13,3 16 9 50 27 NE 998,5 16 -
25.05.2017 15:00:00 18,3 13,3 15 8 - - SE 998,5 16 -
25.05.2017 14:00:00 18,3 13,3 22 12 - - E 999,2 16 0,0
25.05.2017 13:00:00 16,1 13,3 18 10 - - E 999,0 13 0,0
25.05.2017 12:00:00 15,0 13,3 18 10 - - ENE 999,8 6 0,3
25.05.2017 11:00:00 13,9 12,2 - - - - - 1000,6 8 4,3
25.05.2017 10:00:00 13,9 11,7 13 7 - - ENE 1000,5 3,2 0,8
25.05.2017 09:00:00 13,9 11,7 11 6 - - E 1001,3 16 0,0
25.05.2017 08:00:00 13,3 11,7 9 5 - - ENE 1002,0 13 0,0
25.05.2017 07:00:00 13,3 11,1 13 7 - - ENE 1002,6 16 0,0
25.05.2017 06:00:00 13,3 11,1 15 8 - - ENE 1003,0 16 0,3
25.05.2017 05:00:00 13,9 10,6 11 6 - - - 1004,5 16 0,0
25.05.2017 04:00:00 14,4 9,4 8 4 - - - 1004,4 16 -
25.05.2017 03:00:00 14,4 9,4 9 5 - - - 1005,2 16 -
25.05.2017 02:00:00 14,4 10,0 5 3 - - - 1005,5 16 0,0
25.05.2017 01:00:00 15,6 10,0 8 4 - - E 1006,5 16 -
25.05.2017 00:00:00 16,1 10,0 0 0 - - N 1007,2 16 -
24.05.2017 23:00:00 16,1 10,0 5 3 - - - 1007,6 16 0,0
24.05.2017 22:00:00 17,2 8,3 5 3 - - - 1007,7 16 -
24.05.2017 21:00:00 18,3 8,3 9 5 - - - 1006,8 16 -
24.05.2017 20:00:00 19,4 8,9 8 4 - - SE 1006,7 16 0,0
24.05.2017 19:00:00 20,6 9,4 13 7 - - SSE 1006,4 16 -
24.05.2017 18:00:00 22,2 8,9 13 7 - - SE 1006,0 16 -
24.05.2017 17:00:00 21,7 8,3 15 8 - - SE 1006,2 16 0,0
24.05.2017 16:00:00 22,2 8,9 15 8 - - SSE 1005,9 16 -
24.05.2017 15:00:00 22,2 8,3 13 7 - - ESE 1005,6 16 -
24.05.2017 14:00:00 22,8 8,3 5 3 - - - 1005,5 16 0,0
24.05.2017 13:00:00 22,2 7,2 18 10 - - ESE 1006,1 16 -
24.05.2017 12:00:00 21,7 8,3 11 6 - - - 1006,4 16 -
24.05.2017 11:00:00 20,0 8,9 13 7 - - E 1006,5 16 0,0
24.05.2017 10:00:00 16,7 10,6 5 3 - - NE 1007,3 15 -
24.05.2017 09:00:00 16,1 10,6 0 0 - - N 1007,9 15 -
24.05.2017 08:00:00 13,9 10,0 8 4 - - NE 1006,6 16 0,0
24.05.2017 07:00:00 12,8 9,4 8 4 - - E 1006,4 15 -
24.05.2017 06:00:00 11,7 9,4 8 4 - - E 1006,5 15 -
24.05.2017 05:00:00 12,2 9,4 11 6 - - E 1006,6 16 0,0
24.05.2017 04:00:00 11,7 9,4 8 4 - - ESE 1006,6 16 -
24.05.2017 03:00:00 12,2 9,4 5 3 - - E 1006,8 16 -
24.05.2017 02:00:00 12,2 9,4 8 4 - - ESE 1007,4 16 0,0
24.05.2017 01:00:00 12,8 9,4 11 6 - - E 1007,9 16 -
24.05.2017 00:00:00 12,8 9,4 8 4 - - E 1008,8 16 -
23.05.2017 23:00:00 13,3 8,9 5 3 - - E 1009,6 16 0,0
23.05.2017 22:00:00 15,6 8,9 5 3 - - ENE 1009,7 16 -
23.05.2017 21:00:00 16,1 7,8 8 4 - - SE 1009,3 16 -
23.05.2017 20:00:00 17,8 7,8 5 3 - - - 1009,5 16 0,0
23.05.2017 19:00:00 19,4 7,2 0 0 - - N 1009,6 16 -
23.05.2017 18:00:00 20,6 6,7 9 5 - - ENE 1009,7 16 -
23.05.2017 17:00:00 20,6 6,1 5 3 - - - 1010,3 16 0,0
23.05.2017 16:00:00 20,6 7,2 11 6 - - ENE 1011,0 16 -
23.05.2017 15:00:00 20,0 9,4 5 3 - - N 1011,6 16 -
23.05.2017 14:00:00 18,3 8,9 5 3 - - NNW 1012,1 16 0,0
23.05.2017 13:00:00 17,2 8,3 5 3 - - - 1013,0 16 -
23.05.2017 12:00:00 17,2 8,9 0 0 - - N 1014,0 16 -
23.05.2017 11:00:00 16,1 8,3 0 0 - - N 1014,3 16 0,0
23.05.2017 10:00:00 15,0 7,8 0 0 - - N 1014,6 16 -
23.05.2017 09:00:00 14,4 7,8 0 0 - - N 1014,3 16 -
23.05.2017 08:00:00 11,7 7,8 0 0 - - N 1014,6 16 0,0
23.05.2017 07:00:00 10,6 6,7 8 4 - - E 1014,6 16 -
23.05.2017 06:00:00 10,0 6,7 9 5 - - ESE 1014,5 16 -
23.05.2017 05:00:00 11,1 6,7 8 4 - - E 1014,6 16 0,0
23.05.2017 04:00:00 13,3 6,7 9 5 - - ENE 1014,9 16 -
23.05.2017 03:00:00 13,9 7,2 8 4 - - ENE 1015,1 16 -
23.05.2017 02:00:00 15,6 9,4 11 6 - - N 1015,3 16 0,0
23.05.2017 01:00:00 15,6 13,9 5 3 - - WNW 1015,2 13 -
23.05.2017 00:00:00 15,6 13,9 8 4 - - SW 1015,0 13 -
22.05.2017 23:00:00 15,6 13,3 8 4 - - SW 1014,9 15 0,0
22.05.2017 22:00:00 15,6 13,3 5 3 - - SW 1014,8 15 -
22.05.2017 21:00:00 15,6 13,3 0 0 - - N 1014,5 15 -
22.05.2017 20:00:00 16,7 13,3 0 0 - - N 1014,1 15 0,0
22.05.2017 19:00:00 17,2 13,3 9 5 - - SW 1014,0 15 -
22.05.2017 18:00:00 17,2 13,3 8 4 - - SSW 1013,9 15 -
22.05.2017 17:00:00 17,2 12,8 9 5 - - SSW 1014,2 16 0,0
22.05.2017 16:00:00 16,7 12,8 11 6 - - WSW 1014,7 16 -
22.05.2017 15:00:00 16,7 12,8 13 7 - - SW 1015,2 16 -
22.05.2017 14:00:00 16,1 12,8 8 4 - - SSW 1015,6 16 0,0

tt = temperature
td = dewpoint
ff = wind speed
fx = gusts
dd = wind direction
ppp = reduced air pressure
vv = visibility
rr = precipitation

Next stations